Погода в Кунтики

Погода в Кунтики : погода сейчас, прогноз погоды и архив. Всё, что Вы хотите узнать о погоде в Кунтики!

Хотите узнать прогноз погоды в Кунтики? Тогда Вам сюда: Погода в Кунтики

Поиск расширенной информации на нашем сайте:

Другие новости

Новости СМИ2

Главная страница сайта

Новости сайта

03.07.2017

Напоминаем, что на нашем специализированном сайте Метеоцентр.Азия вы можете получить высокодетализированные автоматические прогнозы погоды по пунктам России, СНГ и мира в авиационном формате (включающие направление и скорость ветра, видимость, явления погоды, количество и форму облачности, нижнюю и верхнюю границу облачности).


Погода в Кунтики - сегодня

Время (UTC), дата Ветер
(°,м/с) 
Видим.   Явления Облачность Т
(°С)
Тd
(°С)
f(%) Тe
(°С)
Pmin
(гПа)
dP
(гПа)
Po
(мм)
O2
(г/м3)
Тmin Tmax R s Состояние
почвы
03 17.09.17 170 (Ю) 20000 м    8/1 600 м кучево-дожд., средняя, верхняя 
[Cb calv|Ac lent|Cc]
+12 +6.8 70 +12  1007.3  -3.6  748  288           
06 17.09.17 200 (Ю) 3{11}  20000 м    9/3 600 м кучево-дожд., средняя, верхняя 
[Cb calv|Ac cast|Ci]
+15.3 +8.5 64 +16  1005.2  -1.9  747  283           
09 17.09.17 200 (Ю) 20000 м    9/3 600 м кучево-дожд., средняя, верхняя 
[Cb calv|Ac cuf|Ci]
+16.6 +10.4 67 +19  1004.2  -1  746  281           
12 17.09.17 220 (ЮЗ) 20000 м    8/4 600 м кучево-дожд., средняя, верхняя 
[Cb calv|Ac lent|Ci]
+16.9 +10.8 67 +19  1003.8  -0.4  746  281    +18.2       
15 17.09.17 230 (ЮЗ) 20000 м    5/1 600 м средняя, верхняя 
[Sc|Ac lent|Ci fib]
+12.7 +6.7 67 +13  1005.4  1.4  747  286           
18 17.09.17 210 (ЮЗ) 20000 м    3/0 верхняя 
[Ci fib]
+9.7 +5.4 75 +10  1005.4  747  290           
21 17.09.17 190 (Ю) 20000 м    4/0 верхняя 
[Ci fib]
+6.8 +4.8 87 +7  1005  -0.6  746  293           
00 18.09.17 190 (Ю) 20000 м    9/0 средняя, верхняя 
[Ac lent|Ci fib]
+7.3 +5.3 87 +7  1004.7  -0.2  746  292  +6.7        влажная 
03 18.09.17 210 (ЮЗ) 20000 м    10/3 600 м средняя 
[Sc|Ac und]
+9 +5.8 80 +9  1004.8  0.1  746  290           
06 18.09.17 230 (ЮЗ) 20000 м    9/5 600 м кучево-дожд., средняя, верхняя 
[Cb cap|Ac trans|Ci sp]
+13.5 +6.8 64 +13  1004.6  746  285           
12 18.09.17 200 (Ю) 2{10}  20000 м  в посл. час ливневой дождь  10/8 930 м кучево-дожд., средняя 
[Cb cap|Ac cuf]
+10 +7.6 85 +10  1004.9  0.4  746  289    +15.7     
18 18.09.17 250 (З) 20000 м  в посл. час ливневой дождь  10/3 600 м кучево-дожд., средняя 
[Cb cap|Ac und]
+8.4 +6.8 90 +8  1005.7  0.1  747  291           
21 18.09.17 260 (З) 10 км  слаб. ливневой дождь  10/6 630 м кучево-дожд., средняя 
[Cb cap|Ac und]
+7.2 +5.6 90 +7  1005.9  0.2  747  292           
00 19.09.17 250 (З) 20000 м  {ливн. осадки}  10/8 330 м кучево-дожд., средняя 
[Cb cap|Ac und]
+6.9 +5.6 91 +7  1007.4  1.4  748  293  +6.9    0.8    влажная 
03 19.09.17 270 (З) 5-10{10}  10 км  слаб. ливневой дождь  10/8 330 м кучево-дожд., средняя 
[Cb cap|Ac und]
+7.7 +6.1 90 +6  1008.7  1.4  749  293           
06 19.09.17 290 (З) 5{10}  20000 м  {ливн. осадки}  10/8 500 м кучево-дожд., средняя 
[Cb cap|Ac und]
+6.9 +4.9 87 +5  1011.5  2.7  751  294           
09 19.09.17 290 (З) 6-10{10}  20000 м  {ливн. осадки}  10/6 540 м кучево-дожд., средняя 
[Cb cap|Ac und]
+6.8 +4.6 86 +5  1013.7  2.2  753  295           
12 19.09.17 280 (З) 5{10}  20000 м  {ливн. осадки}  10/8 600 м кучево-дожд., средняя 
[Cb cap|Ac und]
+6.5 +4.5 87 +5  1015.9  2.1  754  296    +7.7     
15 19.09.17 290 (З) 10 км  слаб. ливневой дождь  10/10 270 м кучево-дожд. 
[Cb cap]
+5.5 +4.3 92 +4  1017.9  756  298           
18 19.09.17 290 (З) 20000 м  {ливн. осадки}  10/10 420 м кучево-дожд. 
[Cb cap]
+4.8 +3.5 91 +4  1018.5  0.6  756  299           
21 19.09.17 250 (З) 20000 м    10/3 300 м средняя, верхняя 
[Sc|Ac trans|Ci sp]
+4.2 +2.5 89 +4  1019  0.4  757  300           
00 20.09.17 220 (ЮЗ) 20000 м    10/0 средняя, верхняя 
[Ac trans|Ci sp]
+3.3 +1.8 90 +4  1019.6  0.6  757  301  +3.3    0.4    влажная 
03 20.09.17 220 (ЮЗ) 20000 м    10/0 средняя, верхняя 
[Ac trans|Ci fib]
+3.7 +1.3 84 +5  1019.4  -0.2  757  301  +1.8         
06 20.09.17 230 (ЮЗ) 20000 м    10/5 600 м средняя, верхняя 
[Sc|Ac cast|Ci sp]
+8.2 +1.3 62 +8  1018.2  -1  756  296           
09 20.09.17 140 (ЮВ) 20000 м    10/5 600 м кучево-дожд., средняя 
[Cb cap|Ac und]
+8.6 +1.6 61 +10  1017.2  -1  755  295           
Время (UTC), дата Ветер
(°,м/с) 
Видим.   Явления Облачность Т
(°С)
Тd
(°С)
f(%) Тe
(°С)
Pmin
(гПа)
dP
(гПа)
Po
(мм)
O2
(г/м3)
Тmin Tmax R s Состояние
почвы

Для получения пояснительной информации подведите курсор к названию столбца.

ПОГОДА в Кунтики - архив

Всё, что Вы хотите узнать о погоде в Кунтики - удобно и подробно!

Выберите нужную дату (начиная с 1 января 2015* года) и нажмите кнопку "Найти".
Будут отображены архивные сводки погоды по пункту Кунтики, начиная с указанной даты.


Отображать данные в формате CSV (для использования в таблицах Excel)


Внимание! Наш архив погоды предназначен исключительно для личного некоммерческого использования в познавательных целях. Если Вам необходимы официальные справки о состоянии погоды (для производственных, юридических, коммерческих и т.п. целей), обращайтесь в органы Росгидромета.

*Примечание: данная дата относится к архиву по метеостанциям СССР (Россия, СНГ, Балтия).
Архив по метеостанциям Зарубежной Европы и Азии (кроме Китая) хранится 10 дней, по другим регионам земного шара (Китай, Африка, Америка, Австралия, Океания) - 1 день.

Кунтики - район местоположения метеостанции


Название, широта, долгота, высота метеостанции:
Кунтики 58.4°ш. 76.4°д. 81 м над ур. моря [Российская Федерация]

Дополнительная информация

В oтличие oт бoльшинства пoгoдных сайтoв мы публикуем пoдрoбную метеoинфoрмацию в детальнoм прoфессиoнальнoм фoрмате.

Характеристики температуры и влажнoсти вoздуха измеряются на высoте 2 м в тени вдали oт зданий и деревьев.
Скoрoсть ветра измеряется на высoте 10 м (на урoвне рoста челoвека скoрoсть ветра ниже в 1.5-2 раза). Если метеoстанция нахoдится в гoрoде или в лесу, тo скoрoсть ветра занижена на 2-4 м/с пo сравнению с oткрытым местoм. Скoрoсть ветра над акватoриями крупных рек и oзёр, а также на вершинах хoлмoв на 2-5 м/с выше, чем в oбычных услoвиях.
Атмoсфернoе давление в разных тoчках местнoсти мoжет значительнo oтличаться oт давления на метеoстанции, в зависимoсти oт услoвий рельефа (при пoдъёме на 10 м давление пoнижается примернo на 1 мм рт.ст.).